軌道要素
Epoch 2024 Oct. 17.0 TT = JDT 2460600.5
T 2025 Apr. 26.12853 TT Rudenko
q 5.6949952 (2000.0) P Q
z +0.0002003 Peri. 127.86605 -0.45873105 -0.83886866
+/-0.0000040 Node 19.29665 -0.78058552 +0.22287310
e 0.9988590 Incl. 117.53498 +0.42456102 -0.49661551
From 188 observations 2024 May 11-Sept. 22, mean residual 0".4.
|